Regional Weather Roundup
Issued by NWS Charleston, SC

Current Version | Previous Version | Text Only | Print | Product List | Glossary Off
Versions: 1 2 3 4 5 6 7 8 9 10 11 12 13 14 15 16 17 18 19 20 21 22 23 24 25 26 27 28 29 30 31 32 33 34 35 36 37 38 39 40 41 42 43 44 45 46 47 48 49 50

000
ASUS42 KCHS 180412
RWRCHS

Regional Weather Roundup
National Weather Service Charleston SC
1100 PM EST SAT FEB 17 2018

NOTE: "fair" indicates few or no clouds below 12,000 feet with no
significant weather and/or obstructions to visibility.

Not all stations are quality controlled. Use data with caution,
especially dewpoint observations.

SCZ027-030-031-034>040-042>050-180500-
...Southeast South Carolina...

CITY           SKY/WX    TMP DP  RH WIND       PRES   REMARKS
N Charleston   FAIR      58  57  97 S7        30.11S
Waterfront Prk   N/A     59  59 100 VRB3      29.98S
Mount Pleasant FAIR      59  59 100 SW6       30.11F
Johns Island   CLOUDY    59  59 100 SW8       30.12F
Pinopolis        N/A     59  59 100 S5        30.00F
Moncks Corner  FAIR      59  57  94 S6        30.10S
Summerville    FAIR      59  57  94 CALM      30.11F
Beaufort MCAS  FAIR      63  61  93 S3        30.12S
Beaufort Arpt  FAIR      61  59  94 S6        30.12F
Hilton Head Is FAIR      61  59  94 S7        30.14S
Walterboro     FAIR      59  57  94 S5        30.11S
Allendale      FAIR      68  61  77 CALM      30.10R

...Southern Midlands and Pee Dee...

CITY           SKY/WX    TMP DP  RH WIND       PRES   REMARKS
Georgetown     CLOUDY    59  59 100 SW9       30.11F FOG
Kingstree      FAIR      59  57  94 S6        30.08S
Orangeburg     FAIR      61  58  90 S8        30.09R
Barnwell         N/A     68  61  77 SW6       30.10R
Aiken          FAIR      54  54 100 CALM      30.13S
Manning        FAIR      61   1   9 MISG      30.09R
Columbia       FAIR      55  51  86 SW3       30.08R
Sumter         FAIR      57  55  93 SW5       30.05R
Florence       MOCLDY    56  55  97 S5        30.07S FOG
Myrtle Beach   FOG       58  58 100 SW13      30.10F VSB 1
N Myrtle Beach FOG       56  56 100 SW14      30.08F VSB 1/4

$$

GAZ063-065-086>088-099>101-113>116-118-119-134>141-150-180500-
...Southeast Georgia...

CITY           SKY/WX    TMP DP  RH WIND       PRES   REMARKS
Savannah Arpt  FAIR      67  61  81 SW8       30.13S
Hunter AAF     FAIR      65  62  90 S6        30.11S
Fort Stewart   FAIR      67  60  79 S6        30.12S
Statesboro     FAIR      69  59  72 SW5       30.12S
Sylvania       FAIR      68  64  86 W3        30.13R
Claxton        FAIR      68  63  84 CALM      30.13S

...CSRA, Central and far Southeast Georgia...

CITY           SKY/WX    TMP DP  RH WIND       PRES   REMARKS
Thomson        CLOUDY    54  52  95 CALM      30.15S
Augusta-Bush   FAIR      55  54  96 CALM      30.09R
Augusta-Daniel FAIR      59  55  87 NW5       30.11R
Swainsboro     FAIR      68  63  83 SW3       30.13R
Vidalia        FAIR      64  63  94 CALM      30.13S
Eastman        FAIR      66  58  73 SW3       30.15S
Hazlehurst     FAIR      68  60  77 SW7       30.12S
Alma           FAIR      66  60  81 S7        30.14F
Waycross       FAIR      66  61  85 SW7       30.16S
Jesup          FAIR      68  61  77 CALM      30.16S
Baxley         FAIR      63  63 100 SW6       30.14S
Brunswick      FAIR      68  59  73 SW6       30.17S
Saint Simons   FAIR      67  62  84 SW8       30.16S

$$

SCZ027-028-034-036>038-045-046-048>050-GAZ119-141-180500-
...Lake and Supplemental Coastal Observations...

STATION/POSITION TIME  TEMP    WIND        PRES    WAVE   SWELL
                       AIR SEA DIR/SP/G            HT/PER HT/PER/DIR
                 (UTC) (F)     (DEG/KT/KT) (MB)    (FT/S) (FT/S/D)
Winyah Bay       0245   59     210/  6     1020.0
Lake Murray      0320   54     300/  2/  6 1018.3R
ACE Basin NERRS  0245   59        CALM     1020.0
Fort Pulaski     0336   62 58  200/  5/  7 1020.6F
Sapelo Island    0300   62     170/  7     1021.0

$$

ANZ835-935-AMZ111-154-330-350-352-354-370-450-454-472-180500-
...C-MAN and Buoy Observations...

STATION/POSITION TIME  TEMP    WIND        PRES    WAVE   SWELL
                       AIR SEA DIR/SP/G            HT/PER HT/PER/DIR
                 (UTC) (F)     (DEG/KT/KT) (MB)    (FT/S) (FT/S/D)
Buoy 41004       0350   69 69  230/ 16/ 21 1019.8F   4/ 7   3/ 60/ 7
Buoy 41008       0350   61 58  200/ 10/ 12 1020.8R   3/11   2/130/11
Folly Beach CMAN 0400   58     230/  8/ 11 1020.4F
Capers Nearshore 0308   54 56  230/ 10/ 14 1019.5R
Fripp Nearshore  0308   55 56  230/ 10/ 12 1023.7R


STATION/POSITION TIME  TEMP    WIND        PRES    WAVE   SWELL
                       AIR SEA DIR/SP/G            HT/PER HT/PER/DIR
                 (UTC) (F)     (DEG/KT/KT) (MB)    (FT/S) (FT/S/D)
5E St. Marys GA  0400      59                N/A     2/11   2/110/11
Frying Pan Buoy  0350   67 66  220/ 14/ 16 1019.1R   3/ 7   2/ 70/ 7
Buoy 41025       0350   65 70  250/ 14/ 16 1017.4F   6/ 8   3/ 60/ 8
Cape Lookout NC  0300          270/  3/  3 1018.7R
Buoy 41002       0350   73 72  210/ 17/ 19 1021.6F   5/10   3/ 90/10
Buoy 41010       NOT AVBL
St Augustine FL  0400   67 58  240/  5/  6 1022.6S


$$




USA.gov is the U.S. government's official web portal to all federal, state and local government web resources and services.